Lake Shasta Weather Center

Moon Phase Calendar



Lake Shasta Water Level
Online Cameras

 


      

Current Conditions in Lake Shasta
9/22/2021 7:38:01 AM

63°F
Feels Like 61
Clouds
Humidity
49%
Pressure
30.12"
Wind
4 mph (N)
Dew Point
43°F
UV Index
0/10 (Low)
Visibility
6 mi

Hourly Forecast

Date & Time Wed, Sep 22
7:00 AM
Wed, Sep 22
8:00 AM
Wed, Sep 22
9:00 AM
Wed, Sep 22
10:00 AM
Wed, Sep 22
11:00 AM
Wed, Sep 22
12:00 PM
Wed, Sep 22
1:00 PM
Wed, Sep 22
2:00 PM
Wed, Sep 22
3:00 PM
Wed, Sep 22
4:00 PM
Wed, Sep 22
5:00 PM
Wed, Sep 22
6:00 PM
Wed, Sep 22
7:00 PM
Wed, Sep 22
8:00 PM
Wed, Sep 22
9:00 PM
Wed, Sep 22
10:00 PM
Wed, Sep 22
11:00 PM
Thu, Sep 23
12:00 AM
Thu, Sep 23
1:00 AM
Thu, Sep 23
2:00 AM
Thu, Sep 23
3:00 AM
Thu, Sep 23
4:00 AM
Thu, Sep 23
5:00 AM
Thu, Sep 23
6:00 AM
Thu, Sep 23
7:00 AM
Thu, Sep 23
8:00 AM
Thu, Sep 23
9:00 AM
Thu, Sep 23
10:00 AM
Thu, Sep 23
11:00 AM
Thu, Sep 23
12:00 PM
Thu, Sep 23
1:00 PM
Thu, Sep 23
2:00 PM
Thu, Sep 23
3:00 PM
Thu, Sep 23
4:00 PM
Thu, Sep 23
5:00 PM
Thu, Sep 23
6:00 PM
Thu, Sep 23
7:00 PM
Thu, Sep 23
8:00 PM
Thu, Sep 23
9:00 PM
Thu, Sep 23
10:00 PM
Thu, Sep 23
11:00 PM
Fri, Sep 24
12:00 AM
Fri, Sep 24
1:00 AM
Fri, Sep 24
2:00 AM
Fri, Sep 24
3:00 AM
Fri, Sep 24
4:00 AM
Fri, Sep 24
5:00 AM
Fri, Sep 24
6:00 AM
Condition
Clouds

Clouds

Clouds

Clouds

Clouds

Clouds

Clouds

Clear

Clear

Clouds

Clouds

Clouds

Clouds

Clouds

Clouds

Clouds

Clouds

Clouds

Clouds

Clouds

Clouds

Clouds

Clouds

Clouds

Clouds

Clouds

Clouds

Clouds

Clouds

Clouds

Clouds

Clouds

Clouds

Clouds

Clouds

Clouds

Clouds

Clouds

Clouds

Clouds

Clouds

Clouds

Clouds

Clouds

Clouds

Clouds

Clouds

Clear
Temperature 62°F63°F65°F70°F76°F82°F89°F91°F92°F92°F91°F87°F77°F72°F68°F66°F64°F64°F62°F61°F60°F60°F59°F59°F58°F61°F70°F77°F83°F88°F91°F94°F95°F95°F94°F89°F80°F76°F72°F69°F67°F66°F66°F65°F64°F63°F63°F62°F
Feels Like 61°F61°F63°F68°F75°F80°F86°F87°F88°F88°F87°F84°F75°F70°F67°F64°F62°F62°F60°F59°F58°F58°F57°F56°F56°F59°F68°F76°F81°F84°F87°F89°F90°F90°F89°F85°F78°F74°F70°F67°F65°F64°F63°F62°F61°F61°F60°F60°F
Cloudiness 80%80%76%68%57%20%11%8%9%27%39%100%88%62%59%67%73%100%88%89%91%87%89%100%98%97%93%91%92%100%99%99%98%99%99%100%100%100%100%100%98%100%99%96%95%88%76%8%
Visibility 6 mi6 mi6 mi6 mi6 mi6 mi6 mi6 mi6 mi6 mi6 mi6 mi6 mi6 mi6 mi6 mi6 mi6 mi6 mi6 mi6 mi6 mi6 mi6 mi6 mi6 mi6 mi6 mi6 mi6 mi6 mi6 mi6 mi6 mi6 mi6 mi6 mi6 mi6 mi6 mi6 mi6 mi6 mi6 mi6 mi6 mi6 mi6 mi
Precipitation 0%0%0%0%0%0%0%0%0%0%0%0%0%0%0%0%0%0%0%0%0%0%0%0%0%0%0%0%0%0%0%0%0%0%0%0%0%0%0%0%0%0%0%0%0%0%0%0%
Humidity 47%49%44%38%31%23%15%14%13%13%14%17%25%29%34%37%39%40%43%46%47%48%47%46%45%40%29%22%15%11%9%8%7%7%7%10%14%18%22%26%27%26%25%25%25%26%27%28%
Dew Point 42°F43°F43°F43°F43°F41°F35°F34°F34°F34°F34°F36°F37°F37°F37°F38°F38°F38°F38°F38°F38°F38°F37°F37°F35°F35°F34°F34°F30°F26°F24°F23°F21°F20°F20°F25°F25°F27°F30°F31°F31°F29°F28°F27°F27°F27°F27°F27°F
Pressure 30.12"30.12"30.12"30.12"30.09"30.06"30"30"29.94"29.94"29.91"29.91"29.94"29.97"30"30.03"30.03"30.03"30.06"30.06"30.03"30.03"30.03"30.03"30.06"30.06"30.03"30"30"29.97"29.94"29.91"29.88"29.85"29.83"29.85"29.85"29.88"29.91"29.94"29.94"29.94"29.91"29.94"29.94"29.94"29.94"29.94"
Wind Speed 5.2 mph4 mph2.7 mph0 mph3.8 mph5.5 mph6.4 mph6.7 mph7.1 mph6.3 mph6.2 mph3.9 mph0.8 mph5.6 mph6.2 mph6.8 mph6.9 mph7 mph7.4 mph7.4 mph7.6 mph7.3 mph7.7 mph7.7 mph7.7 mph7.6 mph7.7 mph7.9 mph7.3 mph7.1 mph6.8 mph6.6 mph6 mph5.8 mph6.2 mph4.8 mph5.9 mph7.1 mph7.5 mph7.7 mph7.8 mph7.7 mph7.4 mph7.3 mph7.2 mph7 mph7 mph6.8 mph
Wind
Direction
349°
N
355°
N
347°
NNW
139°
SE
179°
S
180°
S
172°
S
176°
S
178°
S
181°
S
181°
S
177°
S
14°
NNE
352°
N
348°
NNW
355°
N
355°
N
355°
N
356°
N
359°
N
354°
N
358°
N
357°
N
358°
N
359°
N

N

N
12°
NNE
17°
NNE
24°
NNE
28°
NNE
32°
NNE
30°
NNE
32°
NNE
39°
NE
28°
NNE

N

N
355°
N
355°
N
354°
N
356°
N
358°
N
359°
N
360°
N

N
360°
N

N

Daily Forecast

Date High Low Precip. Humidity
Today
Sep 22

Clouds
92 °F
62 °F
0%
15%
Thursday
Sep 23

Clouds
95 °F
58 °F
0%
9%
Friday
Sep 24

Clear
96 °F
63 °F
0%
8%
Saturday
Sep 25

Clear
91 °F
63 °F
0%
12%
Sunday
Sep 26

Clouds
91 °F
61 °F
0%
12%
Monday
Sep 27

Clouds
82 °F
60 °F
0%
22%
Tuesday
Sep 28

Clouds
76 °F
54 °F
19%
40%
Wednesday
Sep 29

Clear
80 °F
48 °F
0%
26%
Thursday
Sep 30

Clear
85 °F
50 °F
0%
17%
Friday
Oct 1

Clouds
87 °F
53 °F
0%
11%
Saturday
Oct 2

Clear
95 °F
57 °F
0%
12%
Sunday
Oct 3

Clear
96 °F
59 °F
0%
10%
Monday
Oct 4

Clouds
92 °F
60 °F
0%
11%
Tuesday
Oct 5

Clouds
91 °F
60 °F
0%
13%
Wednesday
Oct 6

Clouds
89 °F
62 °F
0%
16%
Thursday
Oct 7

Clouds
87 °F
58 °F
0%
19%

Temperature 8-14 Day Outlook



Precipitation 8-14 Day Outlook




Quick Links
Lake Shasta News
Lake Shasta Photos
Lake Shasta Videos




About Us
Contact Us
Site Map
Search Site
Advertise With Us
   
Shasta.USLakes.info
THE LAKE SHASTA WEBSITE

Copyright 2021, Lakes Online
Privacy    |    Legal